GW1601 Weather Reports


Display with metric or nautical units.
time (UTC)temp
F
wind
direction
speed
MPH
gust
MPH
rain 1hr
in
rain 24hr
in
rain mn
in
humidity
%
barometer
mb
20260505075111 61 153 1.0 3.0 0.00 0.00 0.00 80 982.7
20260505073939 61 291 1.0 3.0 0.00 0.00 0.00 80 982.7
20260505073351 61 164 1.0 4.0 0.00 0.00 0.00 80 982.7
20260505072150 61 116 0.0 3.0 0.00 0.00 0.00 80 982.3
20260505070926 61 117 0.0 3.0 0.00 0.00 0.00 81
20260505070310 60 189 1.0 4.0 0.00 0.00 0.00 81
20260505065739 61 216 1.0 4.0 0.00 0.00 0.00 81
20260505064531 61 212 1.0 3.0 0.00 0.00 0.00 81 982.3
20260505063912 61 190 2.0 5.0 0.00 0.00 0.00 80
20260505063352 61 190 2.0 5.0 0.00 0.00 0.00 82
20260505062752 61 96 2.0 3.0 0.00 0.00 0.00 81
20260505062120 61 13 0.0 3.0 0.00 0.00 0.00 81 982.3
20260505060932 61 62 2.0 3.0 0.00 0.00 0.00 82 982.3
20260505060347 61 158 1.0 3.0 0.00 0.00 0.00 81 982.3
20260505055730 61 331 1.0 2.0 0.00 0.00 0.00 82 982.3
20260505055120 61 31 0.0 2.0 0.00 0.00 0.00 82 982.7
20260505054545 62 193 0.0 2.0 0.00 0.00 0.00 82 982.7
20260505053930 61 8 2.0 3.0 0.00 0.00 0.00 82 982.7
20260505053309 61 12 0.0 2.0 0.00 0.00 0.00 83 982.7
20260505051537 61 359 0.0 2.0 0.00 0.00 0.00 84 983.0
20260505050326 60 5 0.0 2.0 0.00 0.00 0.00 86 982.7
20260505041526 57 68 1.0 2.0 0.00 0.00 0.00 94 982.7
20260505040919 57 156 0.0 2.0 0.00 0.00 0.00 93 982.7
20260505035138 57 147 1.0 2.0 0.00 0.00 0.00 93 982.3
20260505034556 57 194 0.0 2.0 0.00 0.00 0.00 93 982.3
20260505033913 56 135 0.0 2.0 0.00 0.00 0.00 93 982.3
20260505033320 57 75 0.0 2.0 0.00 0.00 0.00 92 982.7
20260505032719 57 154 1.0 2.0 0.00 0.00 0.00 92 982.7
20260505032128 57 50 0.0 2.0 0.00 0.00 0.00 92 982.7
20260505031514 57 202 0.0 1.0 0.00 0.00 0.00 92 982.3
20260505030941 57 142 0.0 2.0 0.00 0.00 0.00 92 982.3
20260505030344 57 181 0.0 1.0 0.00 0.00 0.00 92 982.3
20260505025743 57 160 0.0 2.0 0.00 0.00 0.00 91 982.3
20260505025129 57 205 0.0 2.0 0.00 0.00 0.00 92 982.3
20260505024538 57 333 0.0 1.0 0.00 0.00 0.00 92 982.3
20260505022123 57 30 0.0 1.0 0.00 0.00 0.00 90 982.3
20260505021512 58 200 0.0 2.0 0.00 0.00 0.00 88 982.3
20260505020926 58 154 0.0 2.0 0.00 0.00 0.00 87 982.3
20260505020317 59 173 0.0 2.0 0.00 0.00 0.00 86 982.3
20260505015154 59 184 0.0 2.0 0.00 0.00 0.00 85 982.3
20260505014530 59 207 2.0 2.0 0.00 0.00 0.00 84 982.3
20260505013918 60 253 0.0 2.0 0.00 0.00 0.00 83 982.3
20260505013318 60 223 0.0 1.0 0.00 0.00 0.00 82
20260505012711 61 153 0.0 2.0 0.00 0.00 0.00 81
20260505012147 61 193 0.0 2.0 0.00 0.00 0.00 80
20260505011536 62 19 0.0 1.0 0.00 0.00 0.00 79
20260505010914 62 210 0.0 2.0 0.00 0.00 0.00 79
20260505010331 62 147 0.0 1.0 0.00 0.00 0.00 77
20260505005751 63 164 0.0 2.0 0.00 0.00 0.00 77
20260505005121 63 144 0.0 3.0 0.00 0.00 0.00 76
20260505004534 63 148 0.0 2.0 0.00 0.00 0.00 75
20260505003929 64 205 0.0 2.0 0.00 0.00 0.00 73
20260505003354 65 217 0.0 1.0 0.00 0.00 0.00 71
20260505002111 66 195 0.0 1.0 0.00 0.00 0.00 69
20260505001513 67 316 0.0 2.0 0.00 0.00 0.00 67
20260505000916 67 182 0.0 2.0 0.00 0.00 0.00 67
20260505000318 67 212 0.0 2.0 0.00 0.00 0.00 67
20260504235715 67 187 0.0 2.0 0.00 0.00 0.00 66
20260504234528 69 173 0.0 2.0 0.00 0.00 0.00 63 982.3
20260504233933 69 254 1.0 3.0 0.00 0.00 0.00 62 982.3
20260504233341 69 197 0.0 2.0 0.00 0.00 0.00 61 982.3
20260504232715 70 202 0.0 2.0 0.00 0.00 0.00 62 982.3
20260504232153 70 79 1.0 2.0 0.00 0.00 0.00 59 982.3
20260504231519 71 244 2.0 7.0 0.00 0.00 0.00 58 982.7
20260504230952 71 298 1.0 5.0 0.00 0.00 0.00 58 982.3
20260504225714 71 25 0.0 2.0 0.00 0.00 0.00 58 982.7
20260504225147 71 238 0.0 8.0 0.00 0.00 0.00 57 982.7
20260504224511 72 265 0.0 3.0 0.00 0.00 0.00 58 982.7
20260504223935 72 140 1.0 5.0 0.00 0.00 0.00 56 983.0
20260504223316 73 76 2.0 5.0 0.00 0.00 0.00 56 983.0
20260504222753 74 301 0.0 2.0 0.00 0.00 0.00 56 983.0
20260504222112 73 107 0.0 4.0 0.00 0.00 0.00 58 983.0
20260504221522 72 213 1.0 3.0 0.00 0.00 0.00 60 982.7
20260504220927 72 257 1.0 3.0 0.00 0.00 0.00 59 983.0
20260504220316 72 255 1.0 4.0 0.00 0.00 0.00 58 982.7
20260504215123 71 221 3.0 8.0 0.00 0.00 0.00 57 982.7
20260504214552 73 26 0.0 7.0 0.00 0.00 0.00 57 982.7
20260504213951 73 130 0.0 6.0 0.00 0.00 0.00 58 982.7
20260504211527 73 207 2.0 4.0 0.00 0.00 0.00 56 983.4
20260504210950 72 200 3.0 7.0 0.00 0.00 0.00 59 983.4
20260504210330 72 325 2.0 6.0 0.00 0.00 0.00 59 983.4
20260504205734 71 227 2.0 8.0 0.00 0.00 0.00 59 983.4
20260504205140 72 33 1.0 7.0 0.00 0.00 0.00 58 983.0
20260504204542 72 266 0.0 8.0 0.00 0.00 0.00 57 983.7
20260504203931 73 202 4.0 9.0 0.00 0.00 0.00 56 983.4
20260504202734 73 234 6.0 10.0 0.00 0.00 0.00 54 983.4
20260504202114 74 215 2.0 11.0 0.00 0.00 0.00 53 983.4
20260504201541 75 353 4.0 5.0 0.00 0.00 0.00 53 983.4
20260504200320 73 86 3.0 7.0 0.00 0.00 0.00 55 983.0
20260504195752 75 213 5.0 7.0 0.00 0.00 0.00 54 983.0
20260504195124 76 236 2.0 4.0 0.00 0.00 0.00 52 983.4
20260504194552 76 26 3.0 7.0 0.00 0.00 0.00 51 983.4
20260504193936 76 231 4.0 11.0 0.00 0.00 0.00 50 983.4
20260504193337 76 214 3.0 8.0 0.00 0.00 0.00 49 983.4
20260504192722 73 233 5.0 11.0 0.00 0.00 0.00 51 983.4
20260504192139 76 140 1.0 9.0 0.00 0.00 0.00 51 983.4
20260504191533 77 278 2.0 6.0 0.00 0.00 0.00 50 983.4
20260504190949 74 283 5.0 6.0 0.00 0.00 0.00 53 983.4
20260504185733 75 209 4.0 9.0 0.00 0.00 0.00 49 983.4
20260504184535 75 243 3.0 11.0 0.00 0.00 0.00 51 983.4
20260504183943 76 18 2.0 11.0 0.00 0.00 0.00 50 983.4
20260504183329 78 178 3.0 6.0 0.00 0.00 0.00 50 983.4
20260504182741 76 315 5.0 8.0 0.00 0.00 0.00 49 983.4
20260504182142 76 298 2.0 7.0 0.00 0.00 0.00 50 983.4
20260504181512 78 169 2.0 7.0 0.00 0.00 0.00 50 983.4
20260504180923 76 222 1.0 5.0 0.00 0.00 0.00 52 983.7
20260504180320 75 239 4.0 9.0 0.00 0.00 0.00 54 983.4
20260504175748 75 35 3.0 10.0 0.00 0.00 0.00 51 983.7
20260504174534 76 212 3.0 7.0 0.00 0.00 0.00 50 983.7
20260504173931 76 247 5.0 8.0 0.00 0.00 0.00 48 983.7
20260504172713 73 235 4.0 15.0 0.00 0.00 0.00 51 984.0
20260504172134 75 215 3.0 5.0 0.00 0.00 0.00 50 984.0
20260504171554 73 298 2.0 9.0 0.00 0.00 0.00 54 984.0
20260504170919 73 240 2.0 9.0 0.00 0.00 0.00 54 984.0
20260504170335 74 344 4.0 9.0 0.00 0.00 0.00 56 984.0
20260504160347 71 181 0.0 7.0 0.00 0.00 0.00 59 984.7
20260504150915 67 171 0.0 6.0 0.00 0.00 0.00 57 985.4
20260504140937 64 185 1.0 3.0 0.00 0.00 0.00 62 986.1
20260504140321 62 264 2.0 8.0 0.00 0.00 0.00 63 986.1
20260504130318 59 236 3.0 5.0 0.00 0.00 0.00 66 986.4
20260504110322 47 130 0.0 2.0 0.00 0.00 0.00 82 986.1
20260504100350 46 289 0.0 2.0 0.00 0.00 0.00 85 986.4
20260504081552 47 174 1.0 2.0 0.00 0.00 0.00 83 987.1
20260504080329 48 166 1.0 2.0 0.00 0.00 0.00 82 987.1